This is the latest recevied weather packets stored in our database for station/object KBTL-WX. If no packets are shown the sender has not sent any weather packets the latest 10 day(s).
| Time | Temp. | Humidity | Pressure | Rain* | Wind** | Luminosity | Snow |
|---|---|---|---|---|---|---|---|
| 1777611637 | 3.33° C | 95% | 981.4 hPa | 0.25 mm | - | - | - |
| 1777610713 | 2.78° C | 97% | 982.8 hPa | 1.78 mm | - | - | - |
| 1777609831 | 2.78° C | 95% | 981.9 hPa | 1.78 mm | - | - | - |
| 1777608914 | 3.89° C | 95% | 982 hPa | 1.27 mm | - | - | - |
| 1777608038 | 3.89° C | 95% | 982 hPa | 1.27 mm | - | - | - |
| 1777607114 | 3.33° C | 91% | 982.4 hPa | 1.52 mm | - | - | - |
| 1777606228 | 3.89° C | 88% | 981.6 hPa | 1.52 mm | - | - | - |
| 1777605314 | 5° C | 88% | 981.7 hPa | 1.27 mm | - | - | - |
| 1777604432 | 5° C | 88% | 981.7 hPa | 1.27 mm | - | - | - |
| 1777603514 | 5° C | 80% | 981.8 hPa | 0.76 mm | - | - | - |
| 1777602626 | 5° C | 78% | 982.2 hPa | 0.76 mm | - | - | - |
| 1777601714 | 5.56° C | 78% | 982.3 hPa | 0.25 mm | - | - | - |
| 1777600831 | 5.56° C | 78% | 982.3 hPa | 0.25 mm | - | - | - |
| 1777599914 | 5.56° C | 52% | 982.6 hPa | 0 mm | - | - | - |
| 1777599026 | 5.56° C | 52% | 982.6 hPa | 0 mm | - | - | - |
| 1777598114 | 7.22° C | 52% | 982.7 hPa | 0 mm | - | - | - |
| 1777597228 | 7.78° C | 52% | 982.7 hPa | 0 mm | - | - | - |
| 1777596313 | 7.22° C | 45% | 982.3 hPa | 0 mm | - | - | - |
| 1777595426 | 7.78° C | 46% | 983.1 hPa | 0 mm | - | - | - |
| 1777594514 | 8.33° C | 46% | 983.1 hPa | 0 mm | - | - | - |
| 1777593634 | 8.33° C | 46% | 983.1 hPa | 0 mm | - | - | - |
| 1777592715 | 8.33° C | 44% | 982.2 hPa | 0 mm | - | - | - |
| 1777591829 | 8.89° C | 42% | 982.6 hPa | 0 mm | - | - | - |
| 1777590915 | 8.89° C | 42% | 982.6 hPa | 0 mm | - | - | - |
| 1777590031 | 9.44° C | 42% | 982.6 hPa | 0 mm | - | - | - |
* Rain latest hour (hover to see other rain measurements)
** Current wind speed in m/s (hover to see current wind gust speed)